Location: Great Falls
(47.5000°N, 111.3000°W)
Time: 02:19:00
(UTC-07:00)

N. Korean satellite - Visible Passes

Search period start: 17 February 2019 00:00
Search period end: 27 February 2019 00:00
Orbit: 457 x 510 km, 97.2° (Epoch: 16 February)

Date Brightness Start Highest point End Pass type
(mag) Time Alt. Az. Time Alt. Az. Time Alt. Az.
17 Feb 6.7 06:41:51 10° NNE 06:45:22 78° ESE 06:48:48 10° S visible
17 Feb 10.1 18:55:33 10° SW 18:57:35 14° W 18:59:37 10° WNW visible
18 Feb 8.2 06:17:18 10° NNE 06:20:35 37° E 06:23:47 10° SSE visible
18 Feb 9.3 18:29:33 10° SSW 18:32:40 26° W 18:35:47 10° NW visible
19 Feb 9.5 05:53:07 10° NE 05:55:41 19° E 05:58:14 10° SE visible
20 Feb 10.4 05:30:33 10° E 05:30:42 10° E 05:30:51 10° E visible
21 Feb 6.9 06:36:21 10° NNE 06:39:49 66° ESE 06:43:13 10° S visible
21 Feb 10.0 18:49:43 10° SW 18:52:01 16° W 18:54:19 10° NW visible
22 Feb 8.6 06:11:51 10° NNE 06:15:00 31° E 06:18:06 10° SSE visible
23 Feb 9.8 05:47:46 10° NE 05:50:05 17° E 05:52:22 10° SE visible
25 Feb 7.3 06:30:48 10° NNE 06:34:13 56° E 06:37:35 10° S visible
25 Feb 10.0 18:43:53 10° SW 18:46:25 18° W 18:48:56 10° NW visible
26 Feb 8.9 06:06:22 10° NE 06:09:21 27° E 06:12:21 10° SSE visible
